Cosmos 1151 - Orbit

View from above orbital plane
View from above orbital plane
View from above satellite
View from above satellite

Ground track
Ground track

The orbit data is extracted from the following two-line orbital elements,

1 11671U 80005A   13142.18624439  .00019508  00000-0  35500-3 0  1156
2 11671 082.4809 012.6382 0004012 348.8586 158.5964 15.49360545827175
Epoch (UTC): 22 May 2013 04:28:11
Eccentricity: 0.0004012
inclination: 82.4809°
perigee height: 416 km
apogee height: 421 km
right ascension of ascending node: 12.6382°
argument of perigee: 348.8586°
revolutions per day: 15.49360545
mean anomaly at epoch: 158.5964°
orbit number at epoch: 82717

The dashed part of the orbit path shows where the satellite is in the earth's shadow,  

Developed and maintained by Chris Peat, Heavens-Above GmbH. Please read the updated FAQ before sending e-mail. Imprint. DLR